When you browse on this site, cookies collect data to enhance your experience and personalize the content and advertising you see.
Visit our Privacy Policy to learn more. By continuing to use the site, you agree to this use of cookies and data.
  • In Slovakia
  • List of Countries
  • For 7 days
  • Water Temperature
  • Weather Map
  • Weather Widgets
  • user-avatar
    Login

    Hourly Weather Konstantyna

    Today, 3 June, Wednesday

    Time Temperature Precipitation Wind Pressure Humidity
    00:00 +18°C° 0 mm 0 mps 708 mmHg 59%
    01:00 +18°C° 0 mm 0 mps 707 mmHg 60%
    02:00 +17°C° 0 mm 0 mps 707 mmHg 61%
    03:00 +17°C° 0 mm 0 mps 707 mmHg 62%
    04:00 +18°C° 0 mm 0 mps 707 mmHg 58%
    05:00 +19°C° 0 mm 0 mps 707 mmHg 55%
    06:00 +20°C° 0 mm 0 mps 707 mmHg 52%
    07:00 +24°C° 0 mm 1 mps 708 mmHg 47%
    08:00 +26°C° 0 mm 1 mps 708 mmHg 42%
    09:00 +28°C° 0 mm 1 mps 709 mmHg 37%
    10:00 +29°C° 0 mm 1 mps 708 mmHg 34%
    11:00 +30°C° 0 mm 2 mps 708 mmHg 31%
    12:00 +31°C° 0 mm 2 mps 708 mmHg 29%
    13:00 +31°C° 0 mm 2 mps 707 mmHg 28%
    14:00 +31°C° 0 mm 3 mps 707 mmHg 28%
    15:00 +31°C° 0 mm 3 mps 707 mmHg 28%
    16:00 +30°C° 0 mm 3 mps 706 mmHg 34%
    17:00 +28°C° 0 mm 2 mps 706 mmHg 39%
    18:00 +27°C° 0 mm 2 mps 706 mmHg 45%
    19:00 +26°C° 0 mm 2 mps 706 mmHg 47%
    20:00 +24°C° 0 mm 2 mps 706 mmHg 48%
    21:00 +23°C° 0 mm 1 mps 706 mmHg 50%
    22:00 +23°C° 0 mm 1 mps 705 mmHg 52%
    23:00 +22°C° 0 mm 1 mps 705 mmHg 54%

    Tomorrow, 4 June, Thursday

    Time Temperature Precipitation Wind Pressure Humidity
    00:00 +20°C° 0 mm 0 mps 705 mmHg 56%
    01:00 +22°C° 0 mm 1 mps 704 mmHg 55%
    02:00 +22°C° 0 mm 1 mps 704 mmHg 55%
    03:00 +22°C° 0 mm 1 mps 704 mmHg 55%
    04:00 +23°C° 0 mm 1 mps 704 mmHg 53%
    05:00 +24°C° 0 mm 1 mps 704 mmHg 52%
    06:00 +25°C° 0 mm 1 mps 704 mmHg 50%
    07:00 +27°C° 0 mm 3 mps 705 mmHg 42%
    08:00 +30°C° 0 mm 4 mps 705 mmHg 33%
    09:00 +33°C° 0 mm 6 mps 706 mmHg 25%
    10:00 +34°C° 0 mm 6 mps 706 mmHg 24%
    11:00 +35°C° 0 mm 6 mps 705 mmHg 23%
    12:00 +35°C° 0 mm 6 mps 705 mmHg 22%
    13:00 +34°C° 0 mm 6 mps 705 mmHg 25%
    14:00 +33°C° 0 mm 5 mps 705 mmHg 29%
    15:00 +32°C° 0 mm 5 mps 704 mmHg 32%
    16:00 +28°C° 0.1 mm 4 mps 704 mmHg 37%
    17:00 +26°C° 0.1 mm 4 mps 704 mmHg 42%
    18:00 +24°C° 0.1 mm 3 mps 704 mmHg 48%
    19:00 +23°C° 0.2 mm 2 mps 704 mmHg 53%
    20:00 +20°C° 0.2 mm 2 mps 705 mmHg 58%
    21:00 +20°C° 0.2 mm 1 mps 705 mmHg 63%
    22:00 +20°C° 0.5 mm 1 mps 705 mmHg 67%
    23:00 +19°C° 0.5 mm 1 mps 705 mmHg 70%

    Day after tomorrow, 5 June, Friday

    Time Temperature Precipitation Wind Pressure Humidity
    00:00 +19°C° 0.5 mm 1 mps 705 mmHg 74%
    01:00 +18°C° 0.1 mm 1 mps 705 mmHg 75%
    02:00 +18°C° 0.1 mm 1 mps 705 mmHg 77%
    03:00 +18°C° 0.1 mm 1 mps 704 mmHg 79%
    04:00 +18°C° 0 mm 1 mps 705 mmHg 76%
    05:00 +19°C° 0 mm 1 mps 705 mmHg 73%
    06:00 +20°C° 0 mm 1 mps 705 mmHg 70%
    07:00 +21°C° 0 mm 3 mps 706 mmHg 61%
    08:00 +22°C° 0 mm 4 mps 706 mmHg 52%
    09:00 +24°C° 0 mm 6 mps 707 mmHg 44%
    10:00 +26°C° 0 mm 7 mps 707 mmHg 41%
    11:00 +26°C° 0 mm 7 mps 708 mmHg 39%
    12:00 +27°C° 0 mm 7 mps 708 mmHg 37%
    13:00 +27°C° 0 mm 7 mps 708 mmHg 36%
    14:00 +26°C° 0 mm 7 mps 708 mmHg 35%
    15:00 +26°C° 0 mm 6 mps 708 mmHg 34%
    16:00 +25°C° 0 mm 5 mps 708 mmHg 37%
    17:00 +23°C° 0 mm 4 mps 708 mmHg 41%
    18:00 +22°C° 0 mm 3 mps 708 mmHg 44%
    19:00 +20°C° 0 mm 2 mps 708 mmHg 49%
    20:00 +20°C° 0 mm 1 mps 709 mmHg 53%
    21:00 +19°C° 0 mm 1 mps 709 mmHg 58%
    22:00 +19°C° 0 mm 1 mps 709 mmHg 57%
    23:00 +18°C° 0 mm 1 mps 709 mmHg 56%

    6 June, Saturday

    Time Temperature Precipitation Wind Pressure Humidity
    00:00 +18°C° 0 mm 1 mps 708 mmHg 56%
    01:00 +18°C° 0 mm 1 mps 708 mmHg 55%
    02:00 +18°C° 0 mm 1 mps 708 mmHg 55%
    03:00 +18°C° 0 mm 1 mps 708 mmHg 55%
    04:00 +20°C° 0 mm 1 mps 708 mmHg 52%
    05:00 +21°C° 0 mm 1 mps 709 mmHg 49%
    06:00 +22°C° 0 mm 1 mps 709 mmHg 46%
    07:00 +24°C° 0 mm 1 mps 710 mmHg 42%
    08:00 +26°C° 0 mm 1 mps 710 mmHg 37%
    09:00 +29°C° 0 mm 2 mps 710 mmHg 32%
    10:00 +30°C° 0 mm 2 mps 710 mmHg 29%
    11:00 +33°C° 0 mm 3 mps 710 mmHg 26%
    12:00 +34°C° 0 mm 4 mps 710 mmHg 23%
    13:00 +34°C° 0 mm 4 mps 710 mmHg 24%
    14:00 +34°C° 0 mm 4 mps 709 mmHg 24%
    15:00 +34°C° 0 mm 5 mps 709 mmHg 24%
    16:00 +33°C° 0 mm 4 mps 709 mmHg 29%
    17:00 +31°C° 0 mm 3 mps 709 mmHg 33%
    18:00 +29°C° 0 mm 2 mps 708 mmHg 38%
    19:00 +29°C° 0 mm 2 mps 708 mmHg 39%
    20:00 +28°C° 0 mm 2 mps 708 mmHg 40%
    21:00 +27°C° 0 mm 1 mps 708 mmHg 41%
    22:00 +26°C° 0 mm 1 mps 708 mmHg 43%
    23:00 +25°C° 0 mm 1 mps 707 mmHg 44%

    7 June, Sunday

    Time Temperature Precipitation Wind Pressure Humidity
    00:00 +22°C° 0 mm 0 mps 707 mmHg 46%
    01:00 +22°C° 0 mm 0 mps 707 mmHg 47%
    02:00 +24°C° 0 mm 1 mps 706 mmHg 47%
    03:00 +24°C° 0 mm 1 mps 706 mmHg 48%
    04:00 +24°C° 0 mm 1 mps 707 mmHg 47%
    05:00 +25°C° 0 mm 1 mps 707 mmHg 47%
    06:00 +26°C° 0 mm 2 mps 708 mmHg 46%
    07:00 +26°C° 0 mm 2 mps 708 mmHg 43%
    08:00 +27°C° 0 mm 3 mps 709 mmHg 40%
    09:00 +28°C° 0 mm 3 mps 709 mmHg 37%
    10:00 +29°C° 0 mm 3 mps 709 mmHg 35%
    11:00 +30°C° 0 mm 3 mps 710 mmHg 33%
    12:00 +31°C° 0 mm 2 mps 710 mmHg 31%
    13:00 +31°C° 0 mm 3 mps 709 mmHg 32%
    14:00 +31°C° 0 mm 3 mps 709 mmHg 33%
    15:00 +31°C° 0 mm 3 mps 709 mmHg 33%
    16:00 +29°C° 0 mm 4 mps 709 mmHg 39%
    17:00 +28°C° 0 mm 4 mps 709 mmHg 44%
    18:00 +26°C° 0 mm 4 mps 709 mmHg 49%
    19:00 +25°C° 0 mm 3 mps 709 mmHg 52%
    20:00 +23°C° 0 mm 2 mps 709 mmHg 55%
    21:00 +22°C° 0 mm 1 mps 709 mmHg 58%
    22:00 +22°C° 0 mm 1 mps 709 mmHg 58%
    23:00 +21°C° 0 mm 1 mps 709 mmHg 59%

    8 June, Monday

    Time Temperature Precipitation Wind Pressure Humidity
    00:00 +19°C° 0 mm 0 mps 709 mmHg 59%
    01:00 +19°C° 0 mm 0 mps 709 mmHg 59%
    02:00 +19°C° 0 mm 0 mps 708 mmHg 59%
    03:00 +18°C° 0 mm 0 mps 708 mmHg 59%
    04:00 +21°C° 0 mm 1 mps 708 mmHg 56%
    05:00 +22°C° 0 mm 1 mps 708 mmHg 53%
    06:00 +23°C° 0 mm 1 mps 709 mmHg 50%
    07:00 +25°C° 0 mm 1 mps 709 mmHg 46%
    08:00 +27°C° 0 mm 1 mps 709 mmHg 42%
    09:00 +28°C° 0 mm 1 mps 710 mmHg 38%
    10:00 +30°C° 0 mm 1 mps 710 mmHg 36%
    11:00 +31°C° 0 mm 1 mps 710 mmHg 33%
    12:00 +32°C° 0 mm 2 mps 710 mmHg 31%
    13:00 +31°C° 0.1 mm 2 mps 710 mmHg 34%
    14:00 +31°C° 0.1 mm 3 mps 709 mmHg 37%
    15:00 +30°C° 0.1 mm 4 mps 709 mmHg 40%
    16:00 +28°C° 0.6 mm 4 mps 708 mmHg 48%
    17:00 +25°C° 0.6 mm 4 mps 708 mmHg 56%
    18:00 +22°C° 0.6 mm 3 mps 708 mmHg 63%
    19:00 +21°C° 0.2 mm 3 mps 709 mmHg 67%
    20:00 +20°C° 0.2 mm 2 mps 709 mmHg 70%
    21:00 +20°C° 0.2 mm 1 mps 709 mmHg 74%
    22:00 +20°C° 0.2 mm 1 mps 709 mmHg 74%
    23:00 +19°C° 0.2 mm 1 mps 709 mmHg 75%
    Show more